sat.trackr.live / text

‹ back to catalog

STARLINK-4267

NORAD 52864 · 2022-062AL

PAYLOAD ACTIVE UNKNOWN

§ Identity

Operator
Country
US
Launch date
2022-06-17
Launch site
AFETR
Launch vehicle
Mass (kg)
RCS (m²)

Purposes: comms

External: N2YO · Heavens-Above · Gunter

§ Orbital elements

Epoch: 2026-05-25T02:39:59.510016Z

Period
95.44 min
Inclination
53.2158°
Eccentricity
0.0001361
Mean motion
15.08843083 rev/d
Perigee alt
538.8 km
Apogee alt
540.7 km
Semi-major
6,917.9 km
B*
-4.0690e-6
RAAN
41.0507°
Arg perigee
95.4996°
Mean anomaly
264.6152°
Rev number
21,746

§ Raw data

STARLINK-42671 52864U 22062AL  26145.11110544 -.00000353  00000+0 -40690-5 0  99982 52864  53.2158  41.0507 0001361  95.4996 264.6152 15.08843083217467

JSON: /api/v1/satellites/52864 · /tle

For live sub-satellite position, see the globe view (requires WebGL).

§ Visibility from observer

Set your observer location to see the next 7 days of passes ≥ 10°. The values pass through the URL so the page stays shareable.

No JS? Fill the form by hand. The geolocation button needs JavaScript.